Flag for Germany

Past Weather in Wilhelmshaven, Lower Saxony, Germany — Yesterday and Last 2 Weeks

Now
61 °F

Refreshingly cool.


Feels Like: 61 °F
Forecast: 67 / 51 °F
Wind: 12 mph from East

Location: Wittmundhaven
Current Time: Sep 19, 2020 at 12:05:41 pm
Latest Report: Sep 19, 2020 at 11:20 am
Visibility: N/A
Pressure30.21 "Hg
Humidity: 48%
Dew Point: 41 °F
Location of WilhelmshavenLocation

Past Weather in Wilhelmshaven — Graph

°F

Wilhelmshaven Temperature Yesterday

Maximum temperature yesterday: 64 °F (at 3:20 pm)
Minimum temperature yesterday: 45 °F (at 6:20 am)
Average temperature yesterday: 54 °F

High & Low Weather Summary for the Past Weeks

 TemperatureHumidityPressure
High84 °F (Sep 15, 3:20 pm)100% (Sep 7, 5:45 am)30.48 "Hg (Sep 7, 5:45 am)
Low45 °F (Sep 18, 6:20 am)34% (Sep 18, 2:20 pm)29.95 "Hg (Sep 5, 5:20 am)
Average60 °F78%30.14 "Hg
* Reported Sep 4 10:20 am — Sep 19 10:20 am, Wilhelmshaven. Weather by CustomWeather, © 2020

Note: Actual official high and low records may vary slightly from our data, if they occured in-between our weather recording intervals... More about our weather records

Wilhelmshaven Weather History for the Previous 24 Hours

Scroll right to see more
 ConditionsComfort  
Time TempWeatherWind HumidityBarometerVisibility
10:20 am
Sat, Sep 19
57 °FCool.13 mph63%30.21 "HgN/A
9:20 am54 °FCool.9 mph77%30.21 "Hg6 mi
8:20 am52 °FCool.6 mph77%30.21 "Hg5 mi
7:20 am48 °FCool.7 mph87%30.21 "Hg4 mi
6:20 am50 °FCool.8 mph76%30.21 "Hg4 mi
5:20 am50 °FCool.7 mph76%30.21 "Hg4 mi
4:20 am50 °FCool.8 mph82%30.24 "Hg5 mi
3:20 am52 °FCool.7 mph77%30.24 "Hg5 mi
2:20 am50 °FCool.5 mph82%30.27 "Hg4 mi
1:20 am52 °FCool.9 mph72%30.27 "Hg4 mi
12:20 am52 °FCool.6 mph77%30.27 "Hg5 mi
11:20 pm
Fri, Sep 18
52 °FCool.6 mph77%30.30 "Hg5 mi
10:20 pm54 °FCool.3 mph72%30.30 "Hg6 mi
9:20 pm55 °FCool.7 mph67%30.30 "Hg4 mi
8:20 pm55 °FCool.7 mph63%30.30 "Hg5 mi
7:20 pm59 °FPartly sunny.9 mph51%30.30 "HgN/A
6:20 pm63 °FPartly sunny.9 mph49%30.30 "HgN/A
5:20 pm64 °FPartly sunny.12 mph43%30.30 "HgN/A
4:20 pm64 °FScattered clouds.10 mph43%30.33 "HgN/A
3:20 pm64 °FScattered clouds.10 mph34%30.36 "HgN/A
2:20 pm63 °FScattered clouds.13 mph34%30.36 "HgN/A
1:20 pm63 °FPassing clouds.13 mph37%30.39 "HgN/A
12:20 pm61 °FPassing clouds.13 mph42%30.42 "HgN/A
Weather by CustomWeather, © 2020

See weather overview